PRIVATE WETTERSTATION BILLIGHEIM-ALLFELD                       ZURCK
Wetterdaten: Mittwoch, 19.03.2014
Datum Zeit Temp. A. Temp. A. min Temp. A. max Feuchte A. Luftdruck Regen Wind Richtung Richtung Sonnenschein ET Solar Taupunkt Windchill Windben Empfang
19.03.2014 00:00 9,3 C 9,2 C 9,3 C 69 % 1017,5 hPa 0,0 l/m 11,3 km/h (2 Bft) W-SW 247 0 min 0,051 mm 0 W/m 3,9 C 6,1 C 32,2 km/h (5 Bft) 100 %
19.03.2014 00:10 9,3 C 9,3 C 9,3 C 68 % 1017,6 hPa 0,0 l/m 12,9 km/h (3 Bft) W-SW 247 0 min 0,000 mm 0 W/m 3,7 C 5,3 C 32,2 km/h (5 Bft) 100 %
19.03.2014 00:20 9,4 C 9,3 C 9,4 C 67 % 1017,7 hPa 0,0 l/m 12,9 km/h (3 Bft) W-SW 247 0 min 0,000 mm 0 W/m 3,6 C 5,4 C 35,4 km/h (5 Bft) 100 %
19.03.2014 00:30 9,5 C 9,4 C 9,5 C 67 % 1017,8 hPa 0,0 l/m 12,9 km/h (3 Bft) W 270 0 min 0,000 mm 0 W/m 3,7 C 5,5 C 27,4 km/h (4 Bft) 100 %
19.03.2014 00:40 9,5 C 9,4 C 9,5 C 67 % 1017,8 hPa 0,0 l/m 12,9 km/h (3 Bft) W-SW 247 0 min 0,000 mm 0 W/m 3,7 C 5,5 C 25,7 km/h (4 Bft) 100 %
19.03.2014 00:50 9,4 C 9,4 C 9,5 C 69 % 1018,0 hPa 0,0 l/m 9,7 km/h (2 Bft) W 270 0 min 0,000 mm 0 W/m 4,0 C 7,1 C 24,1 km/h (4 Bft) 100 %
19.03.2014 01:00 9,4 C 9,4 C 9,4 C 71 % 1018,3 hPa 0,0 l/m 14,5 km/h (3 Bft) W-SW 247 0 min 0,051 mm 0 W/m 4,4 C 4,6 C 29,0 km/h (5 Bft) 100 %
19.03.2014 01:10 9,4 C 9,4 C 9,4 C 71 % 1018,5 hPa 0,0 l/m 17,7 km/h (3 Bft) W-SW 247 0 min 0,000 mm 0 W/m 4,4 C 3,3 C 38,6 km/h (5 Bft) 100 %
19.03.2014 01:20 9,3 C 9,3 C 9,4 C 71 % 1018,5 hPa 0,0 l/m 12,9 km/h (3 Bft) W 270 0 min 0,000 mm 0 W/m 4,3 C 5,3 C 27,4 km/h (4 Bft) 100 %
19.03.2014 01:30 9,3 C 9,3 C 9,3 C 72 % 1018,6 hPa 0,0 l/m 12,9 km/h (3 Bft) W-SW 247 0 min 0,000 mm 0 W/m 4,5 C 5,3 C 30,6 km/h (5 Bft) 100 %
19.03.2014 01:40 9,3 C 9,2 C 9,3 C 72 % 1018,7 hPa 0,0 l/m 17,7 km/h (3 Bft) W-SW 247 0 min 0,000 mm 0 W/m 4,5 C 3,2 C 35,4 km/h (5 Bft) 100 %
19.03.2014 01:50 9,2 C 9,2 C 9,3 C 72 % 1018,7 hPa 0,0 l/m 17,7 km/h (3 Bft) W-SW 247 0 min 0,000 mm 0 W/m 4,4 C 3,1 C 37,0 km/h (5 Bft) 100 %
19.03.2014 02:00 9,1 C 9,1 C 9,2 C 72 % 1018,7 hPa 0,0 l/m 16,1 km/h (3 Bft) W-SW 247 0 min 0,051 mm 0 W/m 4,3 C 3,6 C 33,8 km/h (5 Bft) 100 %
19.03.2014 02:10 9,1 C 9,1 C 9,2 C 72 % 1018,7 hPa 0,0 l/m 14,5 km/h (3 Bft) W-SW 247 0 min 0,000 mm 0 W/m 4,3 C 4,3 C 32,2 km/h (5 Bft) 98 %
19.03.2014 02:20 9,0 C 9,0 C 9,1 C 72 % 1018,6 hPa 0,0 l/m 12,9 km/h (3 Bft) W-SW 247 0 min 0,000 mm 0 W/m 4,2 C 4,9 C 27,4 km/h (4 Bft) 100 %
19.03.2014 02:30 9,0 C 9,0 C 9,0 C 73 % 1019,0 hPa 0,0 l/m 16,1 km/h (3 Bft) W-SW 247 0 min 0,000 mm 0 W/m 4,4 C 3,5 C 29,0 km/h (5 Bft) 100 %
19.03.2014 02:40 9,0 C 8,9 C 9,0 C 73 % 1019,1 hPa 0,0 l/m 14,5 km/h (3 Bft) W 270 0 min 0,000 mm 0 W/m 4,4 C 4,1 C 35,4 km/h (5 Bft) 100 %
19.03.2014 02:50 8,9 C 8,9 C 9,0 C 73 % 1019,2 hPa 0,0 l/m 17,7 km/h (3 Bft) W 270 0 min 0,000 mm 0 W/m 4,3 C 2,7 C 35,4 km/h (5 Bft) 91 %
19.03.2014 03:00 8,8 C 8,8 C 8,9 C 73 % 1019,2 hPa 0,0 l/m 14,5 km/h (3 Bft) W-SW 247 0 min 0,051 mm 0 W/m 4,2 C 3,9 C 32,2 km/h (5 Bft) 99 %
19.03.2014 03:10 8,7 C 8,7 C 8,8 C 74 % 1019,3 hPa 0,0 l/m 16,1 km/h (3 Bft) W-SW 247 0 min 0,000 mm 0 W/m 4,3 C 3,1 C 35,4 km/h (5 Bft) 100 %
19.03.2014 03:20 8,7 C 8,7 C 8,7 C 74 % 1019,2 hPa 0,0 l/m 17,7 km/h (3 Bft) W-SW 247 0 min 0,000 mm 0 W/m 4,3 C 2,4 C 40,2 km/h (6 Bft) 100 %
19.03.2014 03:30 8,7 C 8,7 C 8,7 C 74 % 1019,4 hPa 0,0 l/m 19,3 km/h (3 Bft) W 270 0 min 0,000 mm 0 W/m 4,3 C 1,9 C 40,2 km/h (6 Bft) 100 %
19.03.2014 03:40 8,7 C 8,7 C 8,7 C 74 % 1019,8 hPa 0,0 l/m 17,7 km/h (3 Bft) W-SW 247 0 min 0,000 mm 0 W/m 4,3 C 2,4 C 38,6 km/h (5 Bft) 100 %
19.03.2014 03:50 8,8 C 8,7 C 8,8 C 73 % 1019,7 hPa 0,0 l/m 19,3 km/h (3 Bft) W-SW 247 0 min 0,000 mm 0 W/m 4,2 C 2,0 C 33,8 km/h (5 Bft) 100 %
19.03.2014 04:00 8,7 C 8,7 C 8,8 C 73 % 1019,9 hPa 0,0 l/m 16,1 km/h (3 Bft) W-SW 247 0 min 0,051 mm 0 W/m 4,1 C 3,1 C 33,8 km/h (5 Bft) 100 %
19.03.2014 04:10 8,7 C 8,7 C 8,8 C 74 % 1020,4 hPa 0,0 l/m 9,7 km/h (2 Bft) W 270 0 min 0,000 mm 0 W/m 4,3 C 6,3 C 29,0 km/h (5 Bft) 100 %
19.03.2014 04:20 8,8 C 8,7 C 8,8 C 74 % 1020,6 hPa 0,0 l/m 14,5 km/h (3 Bft) W 270 0 min 0,000 mm 0 W/m 4,4 C 3,9 C 24,1 km/h (4 Bft) 100 %
19.03.2014 04:30 8,8 C 8,7 C 8,8 C 74 % 1020,8 hPa 0,0 l/m 8,0 km/h (2 Bft) W-SW 247 0 min 0,000 mm 0 W/m 4,4 C 7,6 C 17,7 km/h (3 Bft) 100 %
19.03.2014 04:40 8,8 C 8,8 C 8,8 C 74 % 1020,8 hPa 0,0 l/m 11,3 km/h (2 Bft) W 270 0 min 0,000 mm 0 W/m 4,4 C 5,5 C 25,7 km/h (4 Bft) 100 %
19.03.2014 04:50 8,8 C 8,8 C 8,8 C 74 % 1020,8 hPa 0,0 l/m 11,3 km/h (2 Bft) W-SW 247 0 min 0,000 mm 0 W/m 4,4 C 5,5 C 30,6 km/h (5 Bft) 100 %
19.03.2014 05:00 8,8 C 8,8 C 8,8 C 74 % 1020,9 hPa 0,0 l/m 14,5 km/h (3 Bft) W-SW 247 0 min 0,051 mm 0 W/m 4,4 C 3,9 C 27,4 km/h (4 Bft) 100 %
19.03.2014 05:10 8,8 C 8,8 C 8,8 C 74 % 1021,1 hPa 0,0 l/m 12,9 km/h (3 Bft) W-SW 247 0 min 0,000 mm 0 W/m 4,4 C 4,7 C 27,4 km/h (4 Bft) 100 %
19.03.2014 05:20 8,8 C 8,8 C 8,8 C 74 % 1021,2 hPa 0,0 l/m 14,5 km/h (3 Bft) W-SW 247 0 min 0,000 mm 0 W/m 4,4 C 3,9 C 37,0 km/h (5 Bft) 100 %
19.03.2014 05:30 8,8 C 8,8 C 8,8 C 74 % 1021,5 hPa 0,0 l/m 12,9 km/h (3 Bft) W 270 0 min 0,000 mm 0 W/m 4,4 C 4,7 C 33,8 km/h (5 Bft) 100 %
19.03.2014 05:40 8,7 C 8,7 C 8,8 C 74 % 1021,6 hPa 0,0 l/m 14,5 km/h (3 Bft) W-SW 247 0 min 0,000 mm 0 W/m 4,3 C 3,8 C 32,2 km/h (5 Bft) 90 %
19.03.2014 05:50 8,7 C 8,7 C 8,8 C 75 % 1021,8 hPa 0,0 l/m 11,3 km/h (2 Bft) W 270 0 min 0,000 mm 0 W/m 4,5 C 5,4 C 22,5 km/h (4 Bft) 100 %
19.03.2014 06:00 8,7 C 8,7 C 8,7 C 75 % 1021,9 hPa 0,0 l/m 11,3 km/h (2 Bft) W 270 0 min 0,051 mm 0 W/m 4,5 C 5,4 C 30,6 km/h (5 Bft) 100 %
19.03.2014 06:10 8,7 C 8,7 C 8,7 C 75 % 1022,0 hPa 0,0 l/m 9,7 km/h (2 Bft) W 270 0 min 0,000 mm 0 W/m 4,5 C 6,3 C 19,3 km/h (3 Bft) 100 %
19.03.2014 06:20 8,7 C 8,6 C 8,7 C 75 % 1022,1 hPa 0,0 l/m 9,7 km/h (2 Bft) W-SW 247 0 min 0,000 mm 0 W/m 4,5 C 6,3 C 25,7 km/h (4 Bft) 100 %
19.03.2014 06:30 8,7 C 8,6 C 8,7 C 76 % 1022,1 hPa 0,0 l/m 12,9 km/h (3 Bft) W-SW 247 0 min 0,000 mm 0 W/m 4,7 C 4,6 C 27,4 km/h (4 Bft) 100 %
19.03.2014 06:40 8,7 C 8,6 C 8,7 C 76 % 1022,2 hPa 0,0 l/m 12,9 km/h (3 Bft) W-SW 247 0 min 0,000 mm 7 W/m 4,7 C 4,6 C 27,4 km/h (4 Bft) 100 %
19.03.2014 06:50 8,7 C 8,7 C 8,7 C 76 % 1022,4 hPa 0,0 l/m 12,9 km/h (3 Bft) W 270 0 min 0,000 mm 21 W/m 4,7 C 4,6 C 25,7 km/h (4 Bft) 100 %
19.03.2014 07:00 8,7 C 8,7 C 8,7 C 76 % 1022,4 hPa 0,0 l/m 11,3 km/h (2 Bft) W 270 0 min 0,025 mm 26 W/m 4,7 C 5,4 C 30,6 km/h (5 Bft) 100 %
19.03.2014 07:10 8,7 C 8,7 C 8,7 C 76 % 1022,6 hPa 0,0 l/m 12,9 km/h (3 Bft) W-SW 247 0 min 0,000 mm 28 W/m 4,7 C 4,6 C 29,0 km/h (5 Bft) 100 %
19.03.2014 07:20 8,7 C 8,7 C 8,7 C 76 % 1022,7 hPa 0,0 l/m 12,9 km/h (3 Bft) W 270 0 min 0,000 mm 39 W/m 4,7 C 4,6 C 25,7 km/h (4 Bft) 100 %
19.03.2014 07:30 8,8 C 8,7 C 8,8 C 76 % 1022,8 hPa 0,0 l/m 12,9 km/h (3 Bft) W-SW 247 0 min 0,000 mm 53 W/m 4,8 C 4,7 C 30,6 km/h (5 Bft) 100 %
19.03.2014 07:40 8,8 C 8,7 C 8,8 C 76 % 1022,8 hPa 0,0 l/m 16,1 km/h (3 Bft) W-SW 247 0 min 0,000 mm 53 W/m 4,8 C 3,2 C 27,4 km/h (4 Bft) 100 %
19.03.2014 07:50 8,8 C 8,8 C 8,8 C 76 % 1023,0 hPa 0,0 l/m 12,9 km/h (3 Bft) W 270 0 min 0,000 mm 56 W/m 4,8 C 4,7 C 27,4 km/h (4 Bft) 100 %
19.03.2014 08:00 8,8 C 8,8 C 8,8 C 76 % 1023,1 hPa 0,0 l/m 11,3 km/h (2 Bft) W-SW 247 0 min 0,051 mm 81 W/m 4,8 C 5,5 C 25,7 km/h (4 Bft) 100 %
19.03.2014 08:10 8,9 C 8,8 C 8,9 C 76 % 1023,6 hPa 0,0 l/m 11,3 km/h (2 Bft) W 270 0 min 0,000 mm 134 W/m 4,9 C 5,6 C 25,7 km/h (4 Bft) 100 %
19.03.2014 08:20 8,9 C 8,9 C 8,9 C 76 % 1023,7 hPa 0,0 l/m 14,5 km/h (3 Bft) W-SW 247 0 min 0,000 mm 76 W/m 4,9 C 4,0 C 30,6 km/h (5 Bft) 100 %
19.03.2014 08:30 8,9 C 8,9 C 8,9 C 76 % 1023,7 hPa 0,0 l/m 14,5 km/h (3 Bft) SW 225 10 min 0,000 mm 172 W/m 4,9 C 4,0 C 29,0 km/h (5 Bft) 100 %
19.03.2014 08:40 9,6 C 8,9 C 9,6 C 75 % 1023,8 hPa 0,0 l/m 9,7 km/h (2 Bft) W-SW 247 10 min 0,000 mm 450 W/m 5,4 C 7,3 C 22,5 km/h (4 Bft) 90 %
19.03.2014 08:50 10,1 C 9,6 C 10,2 C 73 % 1024,0 hPa 0,0 l/m 14,5 km/h (3 Bft) W-SW 247 10 min 0,000 mm 459 W/m 5,5 C 5,5 C 27,4 km/h (4 Bft) 100 %
19.03.2014 09:00 10,3 C 10,1 C 10,3 C 72 % 1024,1 hPa 0,0 l/m 11,3 km/h (2 Bft) W 270 10 min 0,127 mm 325 W/m 5,5 C 7,2 C 27,4 km/h (4 Bft) 100 %
19.03.2014 09:10 10,1 C 10,1 C 10,3 C 73 % 1024,2 hPa 0,0 l/m 11,3 km/h (2 Bft) W-SW 247 10 min 0,000 mm 185 W/m 5,5 C 7,0 C 24,1 km/h (4 Bft) 100 %
19.03.2014 09:20 9,9 C 9,9 C 10,1 C 73 % 1024,2 hPa 0,0 l/m 14,5 km/h (3 Bft) W 270 10 min 0,000 mm 206 W/m 5,3 C 5,2 C 29,0 km/h (5 Bft) 100 %
19.03.2014 09:30 10,3 C 9,9 C 10,3 C 73 % 1024,2 hPa 0,0 l/m 16,1 km/h (3 Bft) W-SW 247 10 min 0,000 mm 517 W/m 5,7 C 5,1 C 30,6 km/h (5 Bft) 100 %
19.03.2014 09:40 10,7 C 10,3 C 10,7 C 71 % 1024,3 hPa 0,0 l/m 12,9 km/h (3 Bft) W 270 10 min 0,000 mm 555 W/m 5,7 C 6,9 C 27,4 km/h (4 Bft) 100 %
19.03.2014 09:50 11,0 C 10,3 C 11,0 C 70 % 1024,4 hPa 0,0 l/m 18,4 km/h (3 Bft) W 265 10 min 0,000 mm 605 W/m 5,7 C 5,1 C 35,4 km/h (5 Bft) 100 %
19.03.2014 10:00 10,7 C 10,7 C 11,0 C 70 % 1024,4 hPa 0,0 l/m 18,5 km/h (3 Bft) W-SW 239 10 min 0,151 mm 250 W/m 5,5 C 4,7 C 32,2 km/h (5 Bft) 99 %
19.03.2014 10:10 10,9 C 10,7 C 10,9 C 69 % 1024,4 hPa 0,0 l/m 15,2 km/h (3 Bft) W-NW 299 10 min 0,000 mm 276 W/m 5,4 C 6,1 C 33,8 km/h (5 Bft) 100 %
19.03.2014 10:20 10,9 C 10,9 C 11,0 C 69 % 1024,7 hPa 0,0 l/m 14,5 km/h (3 Bft) W 265 10 min 0,000 mm 292 W/m 5,4 C 6,4 C 30,6 km/h (5 Bft) 100 %
19.03.2014 10:30 10,8 C 10,8 C 10,9 C 69 % 1024,6 hPa 0,0 l/m 16,6 km/h (3 Bft) NW 311 10 min 0,000 mm 675 W/m 5,3 C 5,5 C 35,4 km/h (5 Bft) 100 %
19.03.2014 10:40 10,9 C 10,8 C 11,0 C 69 % 1024,5 hPa 0,0 l/m 12,7 km/h (3 Bft) NW 316 10 min 0,000 mm 724 W/m 5,4 C 7,2 C 27,4 km/h (4 Bft) 100 %
19.03.2014 10:50 11,0 C 10,9 C 11,1 C 69 % 1024,6 hPa 0,0 l/m 18,0 km/h (3 Bft) W-SW 246 10 min 0,000 mm 287 W/m 5,5 C 5,2 C 35,4 km/h (5 Bft) 100 %
19.03.2014 11:00 10,9 C 10,9 C 11,0 C 69 % 1024,7 hPa 0,0 l/m 13,9 km/h (3 Bft) W 276 10 min 0,203 mm 301 W/m 5,4 C 6,7 C 30,6 km/h (5 Bft) 100 %
19.03.2014 11:10 11,1 C 10,8 C 11,1 C 68 % 1024,6 hPa 0,0 l/m 13,4 km/h (3 Bft) W 263 10 min 0,000 mm 476 W/m 5,4 C 7,1 C 32,2 km/h (5 Bft) 100 %
19.03.2014 11:20 11,1 C 11,1 C 11,1 C 67 % 1024,6 hPa 0,0 l/m 17,8 km/h (3 Bft) W 264 10 min 0,000 mm 318 W/m 5,2 C 5,4 C 32,2 km/h (5 Bft) 100 %
19.03.2014 11:30 11,8 C 11,1 C 11,8 C 67 % 1024,6 hPa 0,0 l/m 18,5 km/h (3 Bft) SW 234 10 min 0,000 mm 872 W/m 5,9 C 6,1 C 37,0 km/h (5 Bft) 100 %
19.03.2014 11:40 11,8 C 11,8 C 11,9 C 65 % 1024,9 hPa 0,0 l/m 19,4 km/h (3 Bft) W 280 10 min 0,000 mm 330 W/m 5,4 C 5,8 C 37,0 km/h (5 Bft) 100 %
19.03.2014 11:50 11,3 C 11,3 C 11,8 C 65 % 1024,8 hPa 0,0 l/m 20,4 km/h (4 Bft) W 280 10 min 0,000 mm 316 W/m 5,0 C 4,8 C 40,2 km/h (6 Bft) 100 %
19.03.2014 12:00 11,3 C 11,3 C 11,4 C 64 % 1024,9 hPa 0,0 l/m 16,9 km/h (3 Bft) W-SW 255 10 min 0,254 mm 156 W/m 4,7 C 6,0 C 33,8 km/h (5 Bft) 100 %
19.03.2014 12:10 11,2 C 11,2 C 11,4 C 64 % 1024,9 hPa 0,0 l/m 12,0 km/h (2 Bft) SW 230 0 min 0,000 mm 91 W/m 4,6 C 7,9 C 25,7 km/h (4 Bft) 91 %
19.03.2014 12:20 11,1 C 11,1 C 11,3 C 65 % 1025,0 hPa 0,0 l/m 14,7 km/h (3 Bft) SW 227 0 min 0,000 mm 148 W/m 4,8 C 6,6 C 29,0 km/h (5 Bft) 100 %
19.03.2014 12:30 11,1 C 11,1 C 11,1 C 65 % 1024,9 hPa 0,0 l/m 15,3 km/h (3 Bft) W-SW 238 10 min 0,000 mm 176 W/m 4,8 C 6,3 C 30,6 km/h (5 Bft) 100 %
19.03.2014 12:40 11,3 C 11,1 C 11,3 C 65 % 1024,9 hPa 0,0 l/m 10,8 km/h (2 Bft) W 281 10 min 0,000 mm 204 W/m 5,0 C 8,6 C 25,7 km/h (4 Bft) 100 %
19.03.2014 12:50 11,6 C 11,3 C 11,6 C 63 % 1024,8 hPa 0,0 l/m 11,7 km/h (2 Bft) W-SW 238 10 min 0,000 mm 169 W/m 4,8 C 8,5 C 27,4 km/h (4 Bft) 100 %
19.03.2014 13:00 11,6 C 11,5 C 11,6 C 64 % 1024,9 hPa 0,0 l/m 16,4 km/h (3 Bft) W-SW 244 10 min 0,153 mm 320 W/m 5,0 C 6,5 C 30,6 km/h (5 Bft) 100 %
19.03.2014 13:10 11,7 C 11,6 C 11,7 C 62 % 1025,0 hPa 0,0 l/m 14,7 km/h (3 Bft) W-NW 286 0 min 0,000 mm 130 W/m 4,7 C 7,3 C 29,0 km/h (5 Bft) 100 %
19.03.2014 13:20 11,6 C 11,6 C 11,7 C 62 % 1025,0 hPa 0,0 l/m 17,1 km/h (3 Bft) W-SW 240 10 min 0,000 mm 192 W/m 4,6 C 6,3 C 29,0 km/h (5 Bft) 100 %
19.03.2014 13:30 11,6 C 11,6 C 11,6 C 63 % 1024,9 hPa 0,0 l/m 14,2 km/h (3 Bft) W-SW 256 10 min 0,000 mm 197 W/m 4,8 C 7,4 C 32,2 km/h (5 Bft) 100 %
19.03.2014 13:40 11,8 C 11,6 C 11,8 C 63 % 1024,7 hPa 0,0 l/m 13,7 km/h (3 Bft) W-NW 296 10 min 0,000 mm 192 W/m 5,0 C 7,8 C 30,6 km/h (5 Bft) 100 %
19.03.2014 13:50 12,2 C 11,8 C 12,2 C 63 % 1024,4 hPa 0,0 l/m 13,6 km/h (3 Bft) S-SW 213 10 min 0,000 mm 661 W/m 5,4 C 8,4 C 30,6 km/h (5 Bft) 100 %
19.03.2014 14:00 12,7 C 12,2 C 12,7 C 61 % 1024,7 hPa 0,0 l/m 14,7 km/h (3 Bft) SW 223 10 min 0,203 mm 225 W/m 5,4 C 8,5 C 30,6 km/h (5 Bft) 100 %
19.03.2014 14:10 12,9 C 12,7 C 12,9 C 61 % 1024,6 hPa 0,0 l/m 12,0 km/h (2 Bft) SW 221 10 min 0,000 mm 188 W/m 5,6 C 9,9 C 27,4 km/h (4 Bft) 100 %
19.03.2014 14:20 12,6 C 12,6 C 12,9 C 60 % 1024,5 hPa 0,0 l/m 14,9 km/h (3 Bft) S-SW 194 10 min 0,000 mm 162 W/m 5,0 C 8,3 C 30,6 km/h (5 Bft) 100 %
19.03.2014 14:30 13,1 C 12,6 C 13,1 C 59 % 1024,5 hPa 0,0 l/m 15,4 km/h (3 Bft) SW 232 10 min 0,000 mm 594 W/m 5,3 C 8,7 C 29,0 km/h (5 Bft) 100 %
19.03.2014 14:40 13,0 C 13,0 C 13,3 C 58 % 1024,5 hPa 0,0 l/m 17,3 km/h (3 Bft) W-SW 256 10 min 0,000 mm 230 W/m 4,9 C 8,0 C 32,2 km/h (5 Bft) 99 %
19.03.2014 14:50 13,2 C 13,0 C 13,2 C 60 % 1024,6 hPa 0,0 l/m 13,6 km/h (3 Bft) W-SW 244 10 min 0,000 mm 522 W/m 5,6 C 9,5 C 33,8 km/h (5 Bft) 100 %
19.03.2014 15:00 13,8 C 13,2 C 13,8 C 58 % 1024,3 hPa 0,0 l/m 14,8 km/h (3 Bft) SW 228 10 min 0,279 mm 457 W/m 5,7 C 9,8 C 30,6 km/h (5 Bft) 99 %
19.03.2014 15:10 13,6 C 13,6 C 13,8 C 57 % 1024,3 hPa 0,0 l/m 18,4 km/h (3 Bft) W 275 0 min 0,000 mm 113 W/m 5,2 C 8,4 C 32,2 km/h (5 Bft) 100 %
19.03.2014 15:20 13,5 C 13,4 C 13,6 C 58 % 1024,1 hPa 0,0 l/m 12,9 km/h (3 Bft) W-SW 252 10 min 0,000 mm 388 W/m 5,4 C 10,2 C 27,4 km/h (4 Bft) 100 %
19.03.2014 15:30 13,5 C 13,5 C 13,6 C 57 % 1024,3 hPa 0,0 l/m 13,2 km/h (3 Bft) W-SW 253 10 min 0,000 mm 223 W/m 5,2 C 10,1 C 24,1 km/h (4 Bft) 99 %
19.03.2014 15:40 13,8 C 13,5 C 13,8 C 57 % 1024,3 hPa 0,0 l/m 9,7 km/h (2 Bft) NW 315 10 min 0,000 mm 346 W/m 5,4 C 11,9 C 25,7 km/h (4 Bft) 100 %
19.03.2014 15:50 14,1 C 13,8 C 14,1 C 56 % 1024,4 hPa 0,0 l/m 11,6 km/h (2 Bft) W 263 10 min 0,000 mm 185 W/m 5,5 C 11,4 C 30,6 km/h (5 Bft) 100 %
19.03.2014 16:00 13,7 C 13,7 C 14,1 C 56 % 1024,5 hPa 0,0 l/m 13,4 km/h (3 Bft) SW 219 0 min 0,204 mm 144 W/m 5,1 C 10,2 C 29,0 km/h (5 Bft) 100 %
19.03.2014 16:10 13,6 C 13,6 C 13,7 C 56 % 1024,5 hPa 0,0 l/m 11,1 km/h (2 Bft) W 279 0 min 0,000 mm 137 W/m 5,0 C 11,1 C 22,5 km/h (4 Bft) 100 %
19.03.2014 16:20 13,6 C 13,6 C 13,6 C 56 % 1024,4 hPa 0,0 l/m 11,9 km/h (2 Bft) W-SW 238 0 min 0,000 mm 134 W/m 5,0 C 10,7 C 29,0 km/h (5 Bft) 99 %
19.03.2014 16:30 13,6 C 13,6 C 13,6 C 57 % 1024,4 hPa 0,0 l/m 11,6 km/h (2 Bft) W-SW 237 0 min 0,000 mm 123 W/m 5,2 C 10,8 C 22,5 km/h (4 Bft) 100 %
19.03.2014 16:40 13,4 C 13,4 C 13,6 C 56 % 1024,2 hPa 0,0 l/m 12,5 km/h (3 Bft) W-NW 282 0 min 0,000 mm 116 W/m 4,8 C 10,2 C 27,4 km/h (4 Bft) 100 %
19.03.2014 16:50 13,3 C 13,3 C 13,4 C 57 % 1024,3 hPa 0,0 l/m 12,7 km/h (3 Bft) SW 232 0 min 0,000 mm 100 W/m 5,0 C 10,0 C 24,1 km/h (4 Bft) 100 %
19.03.2014 17:00 13,2 C 13,2 C 13,3 C 58 % 1024,3 hPa 0,0 l/m 11,4 km/h (2 Bft) W 262 0 min 0,127 mm 83 W/m 5,1 C 10,5 C 24,1 km/h (4 Bft) 100 %
19.03.2014 17:10 13,1 C 13,1 C 13,2 C 58 % 1024,4 hPa 0,0 l/m 9,9 km/h (2 Bft) S-SW 204 0 min 0,000 mm 63 W/m 5,0 C 11,1 C 22,5 km/h (4 Bft) 100 %
19.03.2014 17:20 12,9 C 12,9 C 13,1 C 59 % 1024,5 hPa 0,0 l/m 9,6 km/h (2 Bft) W-SW 254 0 min 0,000 mm 62 W/m 5,1 C 11,0 C 24,1 km/h (4 Bft) 100 %
19.03.2014 17:30 12,9 C 12,9 C 12,9 C 61 % 1024,5 hPa 0,0 l/m 12,2 km/h (2 Bft) W-SW 239 0 min 0,000 mm 60 W/m 5,6 C 9,8 C 24,1 km/h (4 Bft) 100 %
19.03.2014 17:40 12,9 C 12,9 C 12,9 C 59 % 1024,6 hPa 0,0 l/m 7,4 km/h (2 Bft) SW 219 0 min 0,000 mm 46 W/m 5,1 C 12,3 C 19,3 km/h (3 Bft) 100 %
19.03.2014 17:50 12,7 C 12,7 C 12,9 C 60 % 1024,6 hPa 0,0 l/m 5,8 km/h (2 Bft) SW 236 0 min 0,000 mm 33 W/m 5,1 C 12,7 C 14,5 km/h (3 Bft) 100 %
19.03.2014 18:00 12,5 C 12,5 C 12,7 C 60 % 1024,6 hPa 0,0 l/m 4,6 km/h (1 Bft) SW 215 0 min 0,076 mm 26 W/m 5,0 C 12,5 C 9,7 km/h (2 Bft) 100 %
19.03.2014 18:10 12,3 C 12,3 C 12,5 C 61 % 1024,7 hPa 0,0 l/m 5,7 km/h (1 Bft) SW 231 0 min 0,000 mm 16 W/m 5,0 C 12,3 C 16,1 km/h (3 Bft) 99 %
19.03.2014 18:20 12,1 C 12,1 C 12,3 C 61 % 1024,7 hPa 0,0 l/m 5,3 km/h (1 Bft) SW 223 0 min 0,000 mm 7 W/m 4,8 C 12,1 C 16,1 km/h (3 Bft) 100 %
19.03.2014 18:30 11,9 C 11,9 C 12,1 C 62 % 1024,9 hPa 0,0 l/m 4,3 km/h (1 Bft) SW 232 0 min 0,000 mm 0 W/m 4,9 C 11,9 C 11,3 km/h (2 Bft) 100 %
19.03.2014 18:40 11,5 C 11,5 C 11,9 C 64 % 1024,9 hPa 0,0 l/m 1,7 km/h (1 Bft) SW 215 0 min 0,000 mm 0 W/m 4,9 C 11,5 C 8,0 km/h (2 Bft) 100 %
19.03.2014 18:50 10,7 C 10,7 C 11,5 C 67 % 1025,0 hPa 0,0 l/m 3,6 km/h (1 Bft) S 188 0 min 0,000 mm 0 W/m 4,8 C 10,7 C 9,7 km/h (2 Bft) 99 %
19.03.2014 19:00 10,2 C 10,2 C 10,7 C 69 % 1025,2 hPa 0,0 l/m 2,1 km/h (1 Bft) S-SW 193 0 min 0,025 mm 0 W/m 4,8 C 10,2 C 9,7 km/h (2 Bft) 100 %
19.03.2014 19:10 10,1 C 10,1 C 10,2 C 70 % 1025,2 hPa 0,0 l/m 4,5 km/h (1 Bft) S-SW 209 0 min 0,000 mm 0 W/m 4,9 C 10,1 C 11,3 km/h (2 Bft) 100 %
19.03.2014 19:20 10,0 C 10,0 C 10,1 C 70 % 1025,2 hPa 0,0 l/m 3,4 km/h (1 Bft) SW 225 0 min 0,000 mm 0 W/m 4,8 C 10,0 C 9,7 km/h (2 Bft) 100 %
19.03.2014 19:30 9,8 C 9,8 C 10,0 C 71 % 1025,4 hPa 0,0 l/m 3,6 km/h (1 Bft) SW 218 0 min 0,000 mm 0 W/m 4,8 C 9,8 C 11,3 km/h (2 Bft) 100 %
19.03.2014 19:40 9,6 C 9,6 C 9,8 C 72 % 1025,4 hPa 0,0 l/m 3,5 km/h (1 Bft) S-SW 209 0 min 0,000 mm 0 W/m 4,8 C 9,6 C 14,5 km/h (3 Bft) 100 %
19.03.2014 19:50 9,5 C 9,4 C 9,6 C 72 % 1025,4 hPa 0,0 l/m 4,3 km/h (1 Bft) SW 215 0 min 0,000 mm 0 W/m 4,7 C 9,5 C 11,3 km/h (2 Bft) 100 %
19.03.2014 20:00 9,6 C 9,5 C 9,6 C 72 % 1025,4 hPa 0,0 l/m 2,9 km/h (1 Bft) SW 227 0 min 0,026 mm 0 W/m 4,8 C 9,6 C 9,7 km/h (2 Bft) 99 %
19.03.2014 20:10 9,6 C 9,6 C 9,6 C 72 % 1025,5 hPa 0,0 l/m 3,9 km/h (1 Bft) S 190 0 min 0,000 mm 0 W/m 4,8 C 9,6 C 9,7 km/h (2 Bft) 100 %
19.03.2014 20:20 9,4 C 9,4 C 9,6 C 72 % 1025,6 hPa 0,0 l/m 3,7 km/h (1 Bft) S 191 0 min 0,000 mm 0 W/m 4,6 C 9,4 C 11,3 km/h (2 Bft) 100 %
19.03.2014 20:30 9,0 C 9,0 C 9,4 C 73 % 1025,6 hPa 0,0 l/m 4,5 km/h (1 Bft) SW 220 0 min 0,000 mm 0 W/m 4,4 C 9,0 C 9,7 km/h (2 Bft) 91 %
19.03.2014 20:40 8,8 C 8,8 C 9,1 C 74 % 1025,7 hPa 0,0 l/m 1,5 km/h (1 Bft) S 175 0 min 0,000 mm 0 W/m 4,4 C 8,8 C 8,0 km/h (2 Bft) 100 %
19.03.2014 20:50 8,7 C 8,7 C 8,8 C 75 % 1025,6 hPa 0,0 l/m 2,2 km/h (1 Bft) S-SW 202 0 min 0,000 mm 0 W/m 4,5 C 8,7 C 8,0 km/h (2 Bft) 100 %
19.03.2014 21:00 8,6 C 8,6 C 8,7 C 75 % 1025,7 hPa 0,0 l/m 2,0 km/h (1 Bft) S-SW 198 0 min 0,025 mm 0 W/m 4,4 C 8,6 C 8,0 km/h (2 Bft) 100 %
19.03.2014 21:10 8,4 C 8,4 C 8,6 C 76 % 1025,8 hPa 0,0 l/m 1,6 km/h (1 Bft) S-SW 202 0 min 0,000 mm 0 W/m 4,4 C 8,4 C 6,4 km/h (2 Bft) 98 %
19.03.2014 21:20 8,3 C 8,3 C 8,4 C 76 % 1025,9 hPa 0,0 l/m 1,6 km/h (1 Bft) S 180 0 min 0,000 mm 0 W/m 4,3 C 8,3 C 8,0 km/h (2 Bft) 98 %
19.03.2014 21:30 8,3 C 8,3 C 8,3 C 76 % 1026,0 hPa 0,0 l/m 1,6 km/h (1 Bft) S 180 0 min 0,000 mm 0 W/m 4,3 C 8,3 C 6,4 km/h (2 Bft) 97 %
19.03.2014 21:40 8,4 C 8,3 C 8,4 C 76 % 1025,9 hPa 0,0 l/m 3,2 km/h (1 Bft) S-SO 157 0 min 0,000 mm 0 W/m 4,4 C 8,4 C 9,7 km/h (2 Bft) 91 %
19.03.2014 21:50 8,4 C 8,4 C 8,4 C 75 % 1025,9 hPa 0,0 l/m 1,6 km/h (1 Bft) S-SW 202 0 min 0,000 mm 0 W/m 4,2 C 8,4 C 8,0 km/h (2 Bft) 95 %
19.03.2014 22:00 8,1 C 8,1 C 8,4 C 77 % 1025,7 hPa 0,0 l/m 3,2 km/h (1 Bft) S-SW 202 0 min 0,025 mm 0 W/m 4,3 C 8,1 C 9,7 km/h (2 Bft) 97 %
19.03.2014 22:10 7,8 C 7,8 C 8,1 C 78 % 1025,7 hPa 0,0 l/m 3,2 km/h (1 Bft) S-SW 202 0 min 0,000 mm 0 W/m 4,2 C 7,8 C 11,3 km/h (2 Bft) 98 %
19.03.2014 22:20 7,7 C 7,6 C 7,8 C 78 % 1025,6 hPa 0,0 l/m 1,6 km/h (1 Bft) S-SO 157 0 min 0,000 mm 0 W/m 4,1 C 7,7 C 6,4 km/h (2 Bft) 98 %
19.03.2014 22:30 7,9 C 7,7 C 7,9 C 77 % 1025,6 hPa 0,0 l/m 1,6 km/h (1 Bft) S-SO 157 0 min 0,000 mm 0 W/m 4,1 C 7,9 C 6,4 km/h (2 Bft) 98 %
19.03.2014 22:40 8,1 C 7,9 C 8,1 C 76 % 1025,6 hPa 0,0 l/m 1,6 km/h (1 Bft) S-SO 157 0 min 0,000 mm 0 W/m 4,1 C 8,1 C 6,4 km/h (2 Bft) 98 %
19.03.2014 22:50 8,1 C 8,1 C 8,2 C 76 % 1025,6 hPa 0,0 l/m 1,6 km/h (1 Bft) S 180 0 min 0,000 mm 0 W/m 4,1 C 8,1 C 11,3 km/h (2 Bft) 97 %
19.03.2014 23:00 7,9 C 7,9 C 8,1 C 76 % 1025,5 hPa 0,0 l/m 0,0 km/h (0 Bft) S-SW 202 0 min 0,025 mm 0 W/m 3,9 C 7,9 C 3,2 km/h (1 Bft) 98 %
19.03.2014 23:10 8,0 C 7,9 C 8,0 C 77 % 1025,3 hPa 0,0 l/m 3,2 km/h (1 Bft) SO 135 0 min 0,000 mm 0 W/m 4,2 C 8,0 C 8,0 km/h (2 Bft) 97 %
19.03.2014 23:20 8,0 C 8,0 C 8,1 C 76 % 1025,4 hPa 0,0 l/m 4,8 km/h (1 Bft) SO 135 0 min 0,000 mm 0 W/m 4,0 C 8,0 C 9,7 km/h (2 Bft) 98 %
19.03.2014 23:30 8,3 C 8,0 C 8,3 C 76 % 1025,3 hPa 0,0 l/m 3,2 km/h (1 Bft) S-SO 157 0 min 0,000 mm 0 W/m 4,3 C 8,3 C 9,7 km/h (2 Bft) 98 %
19.03.2014 23:40 8,2 C 8,2 C 8,3 C 75 % 1025,3 hPa 0,0 l/m 1,6 km/h (1 Bft) S-SO 157 0 min 0,000 mm 0 W/m 4,0 C 8,2 C 6,4 km/h (2 Bft) 98 %
19.03.2014 23:50 7,9 C 7,9 C 8,2 C 76 % 1025,3 hPa 0,0 l/m 1,6 km/h (1 Bft) S-SO 157 0 min 0,000 mm 0 W/m 3,9 C 7,9 C 6,4 km/h (2 Bft) 97 %
_ Min-Zeit 22:20 22:20 22:20 15:50 00:00 - 23:00 - - - - - 00:20 03:30 23:00 08:40
Minimum _ 7,6 C 7,6 C 7,8 C 56 % 1017,5 hPa - 0,0 km/h (0 Bft) - - - - - 3,6 C 1,9 C 3,2 km/h (1 Bft) 90 %
_ Max-Zeit 15:50 15:50 15:50 22:10 21:30 00:00 11:50 - - 08:30 15:00 11:30 11:30 17:50 03:20 00:00
Maximum _ 14,1 C 13,8 C 14,1 C 78 % 1026,0 hPa 0,0 l/m 20,4 km/h
W (4 Bft)
- - 10 min 0,279 mm 872 W/m 5,9 C 12,7 C 40,2 km/h
S-SW (6 Bft)
100 %
Durchschnitt _ 10,2 C 10,1 C 10,3 C 69 % 1023,3 hPa #0,0 l/m 11,1 km/h (2 Bft) W-SW - #6:50 h #2,336 mm 234 W/m 4,7 C 7,1 C 24,5 km/h (4 Bft) 99 %
PRIVATE WETTERSTATION BILLIGHEIM-ALLFELD - www.neckar-odenwald-wetter.de - Holger Sonntag